Location: Lango�lan
(48.1202°N, 3.2340°W)
Time: 00:29:58
(UTC+00:00)

ATLAS 2AS CENTAUR R/B - Pass Details

Date: 23 October 2019
Orbit: 926 x 1286 km, 63.7° (Epoch: 09 November)

Event Time Altitude Azimuth Distance (km) Brightness Sun altitude
Exits shadow 03:38:14 75° 221° (SW) 1,331 2.9 -31.3°
Maximum altitude 03:39:05 90° 307° (NW) 1,292 2.9 -31.1°
Drops below altitude 10° 03:47:09 10° 41° (NE) 3,272 5.9 -29.9°
Sets 03:49:56 0° 41° (NE) 4,219 6.7 -29.4°
